This is the latest recevied weather packets stored in our database for station/object KJ7HSW. If no packets are shown the sender has not sent any weather packets the latest 10 day(s).
| Time | Temp. | Humidity | Pressure | Rain* | Wind** | Luminosity | Snow |
|---|---|---|---|---|---|---|---|
| 1777597322 | 23.33° C | 36% | 1016.5 hPa | 0 mm | - | 64 W/m² | - |
| 1777597018 | 23.33° C | 35% | 1016.5 hPa | 0 mm | - | 71 W/m² | - |
| 1777596716 | 23.89° C | 34% | 1016.4 hPa | 0 mm | - | 89 W/m² | - |
| 1777596412 | 23.89° C | 33% | 1016.7 hPa | 0 mm | - | 112 W/m² | - |
| 1777596109 | 23.89° C | 37% | 1016.8 hPa | 0 mm | - | 137 W/m² | - |
| 1777595804 | 23.89° C | 39% | 1016.8 hPa | 0 mm | - | 156 W/m² | - |
| 1777595500 | 23.89° C | 39% | 1017 hPa | 0 mm | - | 201 W/m² | - |
| 1777595197 | 23.89° C | 37% | 1016.9 hPa | 0 mm | - | 214 W/m² | - |
| 1777594892 | 23.89° C | 40% | 1017 hPa | 0 mm | - | 200 W/m² | - |
| 1777594589 | 23.33° C | 42% | 1016.7 hPa | 0 mm | - | 211 W/m² | - |
| 1777594286 | 23.33° C | 39% | 1017.1 hPa | 0 mm | - | 189 W/m² | - |
| 1777593982 | 23.33° C | 41% | 1017.2 hPa | 0 mm | - | 215 W/m² | - |
| 1777593678 | 23.33° C | 44% | 1017.4 hPa | 0 mm | - | 180 W/m² | - |
| 1777593374 | 23.33° C | 45% | 1017.1 hPa | 0 mm | - | 182 W/m² | - |
| 1777593073 | 23.89° C | 43% | 1017.2 hPa | 0 mm | - | 190 W/m² | - |
| 1777592772 | 23.89° C | 41% | 1017.3 hPa | 0 mm | - | 239 W/m² | - |
| 1777592469 | 24.44° C | 44% | 1017.2 hPa | 0 mm | - | 203 W/m² | - |
| 1777592164 | 24.44° C | 42% | 1017.3 hPa | 0 mm | - | 263 W/m² | - |
| 1777591861 | 24.44° C | 41% | 1017.2 hPa | 0 mm | - | 375 W/m² | - |
| 1777591557 | 25° C | 40% | 1017.5 hPa | 0 mm | - | 426 W/m² | - |
| 1777591253 | 24.44° C | 41% | 1017.6 hPa | 0 mm | - | 471 W/m² | - |
| 1777590949 | 24.44° C | 41% | 1017.5 hPa | 0 mm | - | 499 W/m² | - |
| 1777590644 | 24.44° C | 40% | 1017.6 hPa | 0 mm | - | 341 W/m² | - |
| 1777590341 | 24.44° C | 40% | 1017.8 hPa | 0 mm | - | 391 W/m² | - |
| 1777590038 | 24.44° C | 41% | 1017.9 hPa | 0 mm | - | 427 W/m² | - |
* Rain latest hour (hover to see other rain measurements)
** Current wind speed in m/s (hover to see current wind gust speed)